Surface/Precipitation History
04/16/2014 16:01  to  4/17/2014 16:01
Change End Date:
Date/Time
(MDT)
Sf
Temp Chem Water Layer Surface Precipitation
Sf Sub Frz Factor Pct Depth IcePct Cond Salin Type Intens Accum Rate
04/17/2014 15:41 Wet 56.1F 47F 32F 5 0% 0.00 in 0% 1 mhos 53 Yes - - -
04/17/2014 15:36 Wet 56.5F 47F 32F 35 0% 0.00 in 0% 1 mhos 62 Yes - - -
04/17/2014 15:26 Wet 57.0F 47F 32F 5 0% 0.00 in 0% 1 mhos 72 Yes - - -
04/17/2014 15:16 Wet 56.7F 47F 32F 10 0% 0.00 in 0% 1 mhos 87 Yes - - -
04/17/2014 15:11 Wet 56.7F 47F 32F 5 0% 0.00 in 0% 1 mhos 97 Yes - - -
04/17/2014 15:06 Wet 56.1F 47F 32F 5 0% 0.00 in 0% 1 mhos 106 None None - -
04/17/2014 14:56 Wet 56.3F 47F 32F 15 0% 0.00 in 0% 1 mhos 112 None None - -
04/17/2014 14:46 Wet 58.3F 47F 32F 95 0% 0.00 in 0% 2 mhos 121 None None - -
04/17/2014 14:41 Wet 58.6F 47F 32F 95 0% 0.00 in 0% 2 mhos 117 Yes - - -
04/17/2014 14:36 Wet 57.9F 47F 32F 95 1% 0.00 in 0% 2 mhos 132 Yes - - -
04/17/2014 14:26 Wet 56.7F 47F 32F 95 1% 0.00 in 0% 2 mhos 139 Yes - - -
04/17/2014 14:16 Wet 57.6F 47F 32F 95 1% 0.00 in 0% 2 mhos 142 Yes - - -
04/17/2014 14:11 Wet 56.8F 47F 32F 95 1% 0.00 in 0% 2 mhos 152 Yes - - -
04/17/2014 14:06 Wet 57.0F 47F 32F 95 1% 0.00 in 0% 2 mhos 159 None None - -
04/17/2014 13:56 Wet 56.7F 47F 32F 90 1% 0.00 in 0% 2 mhos 170 Yes - - -
Date/Time
(MDT)
Sf
Temp Chem Water Layer Surface Precipitation
Sf Sub Frz Factor Pct Depth IcePct Cond Salin Type Intens Accum Rate
04/17/2014 13:46 Wet 56.5F 47F 32F 95 1% 0.00 in 0% 2 mhos 181 Yes - - -
04/17/2014 13:41 Wet 55.0F 47F 32F 95 1% 0.00 in 0% 2 mhos 175 Yes - - -
04/17/2014 13:36 Wet 55.0F 47F 32F 95 1% 0.00 in 0% 2 mhos 182 Yes - - -
04/17/2014 13:26 Wet 55.4F 47F 32F 95 1% 0.00 in 0% 2 mhos 173 Yes - - -
04/17/2014 13:16 Wet 56.1F 47F 32F 95 1% 0.00 in 0% 2 mhos 167 Yes - - -
04/17/2014 13:11 Wet 56.1F 47F 32F 45 1% 0.00 in 0% 2 mhos 163 Yes - - -
04/17/2014 13:06 Wet 55.4F 47F 32F 80 1% 0.00 in 0% 2 mhos 177 Yes - - -
04/17/2014 12:56 Wet 54.5F 47F 32F 50 1% 0.00 in 0% 2 mhos 163 Yes - - -
04/17/2014 12:46 Wet 54.0F 47F 32F 90 1% 0.00 in 0% 2 mhos 170 Yes - - -
04/17/2014 12:41 Wet 53.2F 47F 32F 90 1% 0.00 in 0% 2 mhos 168 Yes - - -
04/17/2014 12:36 Wet 53.4F 47F 32F 95 1% 0.00 in 0% 2 mhos 171 Yes - - -
04/17/2014 12:26 Wet 54.1F 47F 32F 95 1% 0.00 in 0% 2 mhos 172 Yes - - -
04/17/2014 12:15 Wet 53.2F 47F 32F 95 1% 0.00 in 0% 2 mhos 180 Yes - - -
04/17/2014 12:11 Wet 53.2F 47F 32F 95 1% 0.00 in 0% 2 mhos 177 Yes - - -
04/17/2014 12:05 Wet 52.2F 47F 32F 95 1% 0.00 in 0% 2 mhos 179 Yes - - -
Date/Time
(MDT)
Sf
Temp Chem Water Layer Surface Precipitation
Sf Sub Frz Factor Pct Depth IcePct Cond Salin Type Intens Accum Rate
04/17/2014 11:55 Wet 51.8F 47F 32F 95 1% 0.00 in 0% 2 mhos 178 Yes - - -
04/17/2014 11:45 Wet 51.8F 47F 32F 95 1% 0.00 in 0% 2 mhos 181 Yes - - -
04/17/2014 11:41 Wet 52.3F 47F 32F 95 1% 0.00 in 0% 2 mhos 176 Yes - - -
04/17/2014 11:35 Wet 51.8F 47F 32F 95 1% 0.00 in 0% 2 mhos 163 Yes - - -
04/17/2014 11:25 Wet 51.1F 47F 32F 95 1% 0.00 in 0% 2 mhos 150 Yes - - -
04/17/2014 11:15 Wet 51.3F 47F 32F 95 1% 0.00 in 0% 2 mhos 185 Yes - - -
04/17/2014 11:11 Wet 50.9F 47F 32F 95 1% 0.00 in 0% 2 mhos 186 Yes - - -
04/17/2014 11:05 Wet 50.7F 47F 32F 95 1% 0.00 in 0% 2 mhos 196 Yes - - -
04/17/2014 10:55 Wet 49.5F 47F 32F 75 1% 0.00 in 0% 2 mhos 199 Yes - - -
04/17/2014 10:45 Wet 49.3F 47F 32F 65 1% 0.00 in 0% 3 mhos 216 Yes - - -
04/17/2014 10:41 Wet 49.3F 47F 32F 85 1% 0.00 in 0% 3 mhos 225 Yes - - -
04/17/2014 10:35 Wet 48.7F 47F 32F 95 1% 0.00 in 0% 3 mhos 234 Yes - - -
04/17/2014 10:25 Wet 48.2F 47F 32F 55 1% 0.00 in 0% 2 mhos 211 Yes - - -
04/17/2014 10:15 Wet 47.7F 47F 32F 80 1% 0.00 in 0% 3 mhos 219 Yes - - -
04/17/2014 10:11 Wet 47.5F 47F 32F 70 1% 0.00 in 0% 3 mhos 225 Yes - - -
Date/Time
(MDT)
Sf
Temp Chem Water Layer Surface Precipitation
Sf Sub Frz Factor Pct Depth IcePct Cond Salin Type Intens Accum Rate
04/17/2014 10:05 Wet 47.1F 47F 32F 95 1% 0.00 in 0% 2 mhos 151 Yes - - -
04/17/2014 09:55 Wet 46.9F 47F 32F 40 1% 0.00 in 0% 3 mhos 240 Yes - - -
04/17/2014 09:45 Wet 46.6F 47F 32F 90 1% 0.00 in 0% 2 mhos 144 Yes - - -
04/17/2014 09:41 Wet 46.4F 47F 32F 90 1% 0.00 in 0% 2 mhos 137 Yes - - -
04/17/2014 09:35 Wet 45.7F 47F 32F 40 1% 0.00 in 0% 2 mhos 143 Yes - - -
04/17/2014 09:25 Wet 45.1F 47F 32F 50 1% 0.00 in 0% 2 mhos 143 Yes - - -
04/17/2014 09:15 Wet 44.2F 47F 32F 60 1% 0.00 in 0% 2 mhos 157 Yes - - -
04/17/2014 09:11 Wet 44.2F 47F 32F 5 1% 0.00 in 0% 2 mhos 158 Yes - - -
04/17/2014 09:05 Wet 43.3F 47F 32F 10 1% 0.00 in 0% 2 mhos 159 Yes - - -
04/17/2014 08:55 Wet 42.1F 47F 32F 25 1% 0.00 in 0% 2 mhos 169 Yes - - -
04/17/2014 08:45 Wet 41.9F 47F 32F 20 1% 0.00 in 0% 2 mhos 192 Yes - - -
04/17/2014 08:42 Wet 41.5F 47F 32F 15 1% 0.00 in 0% 2 mhos 198 Yes - - -
04/17/2014 08:34 Wet 41.4F 47F 32F 5 1% 0.00 in 0% 2 mhos 198 Yes - - -
04/17/2014 08:24 Wet 40.6F 47F 32F 10 1% 0.00 in 0% 2 mhos 210 Yes - - -
04/17/2014 08:14 Wet 40.1F 48F 32F 5 1% 0.00 in 0% 2 mhos 207 Yes - - -
Date/Time
(MDT)
Sf
Temp Chem Water Layer Surface Precipitation
Sf Sub Frz Factor Pct Depth IcePct Cond Salin Type Intens Accum Rate
04/17/2014 08:04 Wet 39.7F 48F 32F 5 1% 0.00 in 0% 2 mhos 203 Yes - - -
04/17/2014 07:54 Wet 39.4F 48F 32F 15 1% 0.00 in 0% 2 mhos 214 Yes - - -
04/17/2014 07:44 Wet 39.2F 48F 32F 20 1% 0.00 in 0% 3 mhos 297 Yes - - -
04/17/2014 07:42 Wet 39.2F 48F 32F 35 1% 0.00 in 0% 3 mhos 282 Yes - - -
04/17/2014 07:34 Wet 39.0F 48F 32F 60 1% 0.00 in 0% 3 mhos 262 Yes - - -
04/17/2014 07:24 Wet 38.8F 48F 32F 50 1% 0.00 in 0% 2 mhos 213 Yes - - -
04/17/2014 07:14 Wet 38.8F 48F 32F 75 1% 0.00 in 0% 2 mhos 196 Yes - - -
04/17/2014 07:11 Wet 38.8F 48F 32F 95 1% 0.00 in 0% 3 mhos 275 Yes - - -
04/17/2014 07:04 Wet 38.7F 48F 32F 95 1% 0.00 in 0% 1 mhos 132 Yes - - -
04/17/2014 06:54 Wet 38.7F 48F 32F 95 0% 0.00 in 0% 1 mhos 69 Yes - - -
04/17/2014 06:44 Wet 38.5F 48F 32F 95 0% 0.00 in 0% 1 mhos 64 Yes - - -
04/17/2014 06:41 Wet 38.5F 48F 32F 95 0% 0.00 in 0% 1 mhos 62 Yes - - -
04/17/2014 06:34 Wet 38.7F 48F 32F 95 0% 0.00 in 0% 1 mhos 59 Yes - - -
04/17/2014 06:24 Wet 38.5F 48F 32F 95 0% 0.00 in 0% 1 mhos 64 Yes - - -
04/17/2014 06:14 Wet 38.5F 48F 32F 95 0% 0.00 in 0% 1 mhos 57 Yes - - -
Date/Time
(MDT)
Sf
Temp Chem Water Layer Surface Precipitation
Sf Sub Frz Factor Pct Depth IcePct Cond Salin Type Intens Accum Rate
04/17/2014 06:11 Wet 38.7F 48F 32F 95 0% 0.00 in 0% 1 mhos 55 Yes - - -
04/17/2014 06:04 Wet 38.7F 48F 32F 95 0% 0.00 in 0% 1 mhos 54 None None - -
04/17/2014 05:54 Wet 38.5F 48F 32F 95 0% 0.00 in 0% 1 mhos 56 Yes - - -
04/17/2014 05:44 Wet 38.5F 48F 32F 95 0% 0.00 in 0% 1 mhos 59 None None - -
04/17/2014 05:41 Wet 38.3F 48F 32F 95 0% 0.00 in 0% 1 mhos 58 None None - -
04/17/2014 05:34 Wet 38.5F 48F 32F 95 0% 0.00 in 0% 1 mhos 57 Yes - - -
04/17/2014 05:24 Wet 38.5F 48F 32F 95 0% 0.00 in 0% 0 mhos 43 Yes - - -
04/17/2014 05:14 Wet 38.7F 48F 32F 95 0% 0.10 in 0% 0 mhos 25 Yes - - -
04/17/2014 05:11 Wet 38.7F 48F 32F 95 0% 0.20 in 0% 0 mhos 17 Yes - - -
04/17/2014 05:04 Wet 38.8F 48F 32F 75 0% 0.10 in 0% 0 mhos 10 Yes - - -
04/17/2014 04:54 Wet 38.7F 48F 32F 80 0% 0.10 in 0% 0 mhos 11 None None - -
04/17/2014 04:44 Wet 38.8F 48F 32F 85 0% 0.10 in 0% 0 mhos 11 None None - -
04/17/2014 04:41 Wet 38.8F 48F 32F 85 0% 0.10 in 0% 0 mhos 11 None None - -
04/17/2014 04:34 Wet 38.8F 48F 32F 80 0% 0.10 in 0% 0 mhos 10 None None - -
04/17/2014 04:23 Wet 38.8F 48F 32F 85 0% 0.10 in 0% 0 mhos 11 None None - -
Date/Time
(MDT)
Sf
Temp Chem Water Layer Surface Precipitation
Sf Sub Frz Factor Pct Depth IcePct Cond Salin Type Intens Accum Rate
04/17/2014 04:13 Wet 38.8F 48F 32F 75 0% 0.10 in 0% 0 mhos 12 None None - -
04/17/2014 04:11 Wet 38.8F 48F 32F 75 0% 0.10 in 0% 0 mhos 12 None None - -
04/17/2014 04:03 Wet 38.8F 48F 32F 70 0% 0.00 in 0% 0 mhos 13 None None - -
04/17/2014 03:53 Wet 38.8F 48F 32F 85 0% 0.10 in 0% 0 mhos 14 None None - -
04/17/2014 03:43 Wet 39.2F 48F 32F 65 0% 0.00 in 0% 0 mhos 16 None None - -
04/17/2014 03:41 Wet 39.2F 48F 32F 60 0% 0.00 in 0% 0 mhos 16 None None - -
04/17/2014 03:33 Wet 39.4F 48F 32F 70 0% 0.00 in 0% 0 mhos 17 None None - -
04/17/2014 03:23 Wet 39.6F 48F 32F 85 0% 0.00 in 0% 0 mhos 19 None None - -
04/17/2014 03:13 Wet 39.7F 49F 32F 60 0% 0.00 in 0% 0 mhos 22 None None - -
04/17/2014 03:11 Wet 39.7F 49F 32F 65 0% 0.00 in 0% 0 mhos 23 None None - -
04/17/2014 03:03 Wet 39.7F 49F 32F 65 0% 0.00 in 0% 0 mhos 27 None None - -
04/17/2014 02:53 Wet 39.6F 49F 32F 50 0% 0.00 in 0% 0 mhos 31 None None - -
04/17/2014 02:43 Wet 39.4F 49F 32F 65 0% 0.00 in 0% 0 mhos 36 None None - -
04/17/2014 02:41 Wet 39.4F 49F 32F 60 0% 0.00 in 0% 0 mhos 35 None None - -
04/17/2014 02:33 Wet 39.2F 49F 32F 70 0% 0.00 in 0% 0 mhos 40 None None - -
Date/Time
(MDT)
Sf
Temp Chem Water Layer Surface Precipitation
Sf Sub Frz Factor Pct Depth IcePct Cond Salin Type Intens Accum Rate
04/17/2014 02:23 Wet 39.2F 49F 32F 45 0% 0.00 in 0% 0 mhos 46 None None - -
04/17/2014 02:13 Wet 39.4F 49F 32F 80 0% 0.00 in 0% 1 mhos 50 Yes - - -
04/17/2014 02:11 Wet 39.4F 49F 32F 75 0% 0.00 in 0% 1 mhos 51 None None - -
04/17/2014 02:03 Wet 39.4F 49F 32F 90 0% 0.00 in 0% 1 mhos 54 Yes - - -
04/17/2014 01:53 Wet 39.6F 49F 32F 95 0% 0.00 in 0% 1 mhos 62 Yes - - -
04/17/2014 01:43 Wet 39.7F 49F 32F 95 0% 0.00 in 0% 1 mhos 69 None None - -
04/17/2014 01:41 Wet 39.7F 49F 32F 95 0% 0.00 in 0% 1 mhos 67 None None - -
04/17/2014 01:33 Wet 40.1F 49F 32F 95 0% 0.00 in 0% 1 mhos 67 None None - -
04/17/2014 01:23 Wet 40.3F 49F 32F 95 0% 0.00 in 0% 1 mhos 67 Yes - - -
04/17/2014 01:13 Wet 40.6F 49F 32F 95 0% 0.00 in 0% 1 mhos 56 None None - -
04/17/2014 01:11 Wet 40.6F 49F 32F 95 0% 0.00 in 0% 1 mhos 53 Yes - - -
04/17/2014 01:03 Wet 40.8F 49F 32F 75 0% 0.00 in 0% 0 mhos 17 Yes - - -
04/17/2014 00:53 Wet 41.0F 49F 32F 35 0% 0.00 in 0% 0 mhos 12 Yes - - -
04/17/2014 00:43 Wet 41.0F 49F 32F 25 0% 0.00 in 0% 0 mhos 11 None None - -
04/17/2014 00:41 Wet 41.0F 49F 32F 25 0% 0.00 in 0% 0 mhos 12 None None - -
Date/Time
(MDT)
Sf
Temp Chem Water Layer Surface Precipitation
Sf Sub Frz Factor Pct Depth IcePct Cond Salin Type Intens Accum Rate
04/17/2014 00:32 Wet 40.8F 49F 32F 30 0% 0.00 in 0% 0 mhos 13 None None - -
04/17/2014 00:22 Wet 41.0F 49F 32F 30 0% 0.00 in 0% 0 mhos 14 None None - -
04/17/2014 00:12 Wet 41.0F 49F 32F 30 0% 0.00 in 0% 0 mhos 16 None None - -
04/17/2014 00:12 Wet 41.0F 49F 32F 30 0% 0.00 in 0% 0 mhos 16 None None - -
04/17/2014 00:02 Wet 41.2F 49F 32F 20 0% 0.00 in 0% 0 mhos 18 None None - -
04/16/2014 23:52 Wet 41.4F 49F 32F 30 0% 0.00 in 0% 0 mhos 22 None None - -
04/16/2014 23:42 Wet 41.5F 49F 32F 80 0% 0.00 in 0% 0 mhos 24 None None - -
04/16/2014 23:41 Wet 41.5F 49F 32F 75 0% 0.00 in 0% 0 mhos 24 None None - -
04/16/2014 23:32 Wet 41.9F 49F 32F 50 0% 0.00 in 0% 0 mhos 21 Yes - - -
04/16/2014 23:22 Wet 42.1F 49F 32F 15 0% 0.00 in 0% 0 mhos 23 None None - -
04/16/2014 23:12 Wet 42.1F 49F 32F 25 0% 0.00 in 0% 0 mhos 28 None None - -
04/16/2014 23:11 Wet 42.3F 49F 32F 25 0% 0.00 in 0% 0 mhos 28 None None - -
04/16/2014 23:02 Wet 42.3F 49F 32F 35 0% 0.00 in 0% 0 mhos 32 None None - -
04/16/2014 22:52 Wet 42.4F 49F 32F 65 0% 0.00 in 0% 0 mhos 34 None None - -
04/16/2014 22:42 Wet 42.6F 49F 32F 90 0% 0.00 in 0% 0 mhos 26 None None - -
Date/Time
(MDT)
Sf
Temp Chem Water Layer Surface Precipitation
Sf Sub Frz Factor Pct Depth IcePct Cond Salin Type Intens Accum Rate
04/16/2014 22:41 Wet 42.6F 49F 32F 85 0% 0.00 in 0% 0 mhos 21 Yes - - -
04/16/2014 22:32 Wet 42.8F 49F 32F 5 0% 0.00 in 0% 0 mhos 4 None None - -
04/16/2014 22:22 Wet 42.8F 49F 32F 5 0% 0.00 in 0% 0 mhos 5 None None - -
04/16/2014 22:12 Wet 42.8F 49F 32F 5 0% 0.00 in 0% 0 mhos 10 None None - -
04/16/2014 22:11 Wet 42.8F 49F 32F 5 0% 0.00 in 0% 0 mhos 19 None None - -
04/16/2014 22:02 Wet 43.0F 49F 32F 5 0% 0.00 in 0% 0 mhos 0 None None - -
04/16/2014 21:52 Wet 43.2F 49F 32F 5 0% 0.00 in 0% 0 mhos 0 None None - -
04/16/2014 21:42 Wet 43.3F 49F 32F 5 0% 0.00 in 0% 0 mhos 0 Yes - - -
04/16/2014 21:41 Wet 43.3F 49F 32F 5 0% 0.00 in 0% 0 mhos 0 Yes - - -
04/16/2014 21:32 Wet 43.7F 49F 32F 5 0% 0.00 in 0% 0 mhos 0 None None - -
04/16/2014 21:22 Wet 43.9F 49F 32F 35 0% 0.00 in 0% 0 mhos 0 None None - -
04/16/2014 21:12 Dry 44.1F 49F - - - - - 0 mhos 0 None None - -
04/16/2014 21:11 Wet 44.1F 49F 32F 5 0% 0.00 in 0% 0 mhos 0 None None - -
04/16/2014 21:02 Wet 44.1F 48F 32F 5 0% 0.00 in 0% 0 mhos 0 None None - -
04/16/2014 20:52 Dry 44.4F 48F - - - - - 0 mhos 0 None None - -
Date/Time
(MDT)
Sf
Temp Chem Water Layer Surface Precipitation
Sf Sub Frz Factor Pct Depth IcePct Cond Salin Type Intens Accum Rate
04/16/2014 20:41 Dry 45.0F 48F - - - - - 0 mhos 0 None None - -
04/16/2014 20:41 Dry 45.0F 48F - - - - - 0 mhos 0 None None - -
04/16/2014 20:31 Dry 45.3F 48F - - - - - 0 mhos 0 None None - -
04/16/2014 20:21 Dry 45.7F 48F - - - - - 0 mhos 0 None None - -
04/16/2014 20:11 Dry 46.2F 48F - - - - - 0 mhos 0 None None - -
04/16/2014 20:11 Dry 46.2F 48F - - - - - 0 mhos 0 None None - -
04/16/2014 20:01 Dry 46.6F 48F - - - - - 0 mhos 0 None None - -
04/16/2014 19:51 Dry 47.3F 48F - - - - - 0 mhos 0 None None - -
04/16/2014 19:41 Dry 47.8F 48F - - - - - 0 mhos 0 None None - -
04/16/2014 19:31 Dry 48.2F 48F - - - - - 0 mhos 0 None None - -
04/16/2014 19:21 Dry 48.4F 48F - - - - - 0 mhos 0 None None - -
04/16/2014 19:11 Dry 48.7F 48F - - - - - 0 mhos 0 None None - -
04/16/2014 19:11 Dry 48.7F 48F - - - - - 0 mhos 0 None None - -
04/16/2014 19:01 Dry 49.1F 48F - - - - - 0 mhos 0 None None - -
04/16/2014 18:51 Dry 49.8F 48F - - - - - 0 mhos 0 None None - -
Date/Time
(MDT)
Sf
Temp Chem Water Layer Surface Precipitation
Sf Sub Frz Factor Pct Depth IcePct Cond Salin Type Intens Accum Rate
04/16/2014 18:41 Dry 50.5F 48F - - - - - 0 mhos 0 None None - -
04/16/2014 18:41 Dry 50.5F 48F - - - - - 0 mhos 0 None None - -
04/16/2014 18:31 Dry 51.1F 48F - - - - - 0 mhos 0 None None - -
04/16/2014 18:21 Dry 52.0F 48F - - - - - 0 mhos 0 None None - -
04/16/2014 18:11 Wet 51.8F 48F 32F 5 0% 0.00 in 0% 0 mhos 2 Yes - - -
04/16/2014 18:11 Wet 51.8F 48F 32F 5 0% 0.00 in 0% 0 mhos 3 Yes - - -
04/16/2014 18:01 Wet 52.2F 48F 32F 5 0% 0.00 in 0% 0 mhos 2 Yes - - -
04/16/2014 17:51 Dry 53.4F 48F - - - - - 0 mhos 0 None None - -
04/16/2014 17:41 Dry 54.0F 48F - - - - - 0 mhos 0 None None - -
04/16/2014 17:41 Dry 54.0F 48F - - - - - 0 mhos 0 None None - -
04/16/2014 17:31 Dry 54.0F 48F - - - - - 0 mhos 0 None None - -
04/16/2014 17:21 Dry 54.3F 47F - - - - - 0 mhos 0 None None - -
04/16/2014 17:11 Dry 54.0F 47F - - - - - 0 mhos 0 None None - -
04/16/2014 17:00 Dry 54.7F 47F - - - - - 0 mhos 0 None None - -
04/16/2014 16:50 Dry 55.0F 47F - - - - - 0 mhos 0 None None - -
Date/Time
(MDT)
Sf
Temp Chem Water Layer Surface Precipitation
Sf Sub Frz Factor Pct Depth IcePct Cond Salin Type Intens Accum Rate
04/16/2014 16:41 Dry 54.9F 47F - - - - - 0 mhos 0 None None - -
04/16/2014 16:40 Dry 54.9F 47F - - - - - 0 mhos 0 None None - -
04/16/2014 16:30 Dry 54.9F 47F - - - - - 0 mhos 0 None None - -
04/16/2014 16:20 Dry 53.6F 47F - - - - - 0 mhos 2 None None - -
04/16/2014 16:11 Wet 53.1F 47F 32F 45 0% 0.00 in 0% 0 mhos 27 None None - -
04/16/2014 16:10 Wet 52.7F 47F 32F 50 0% 0.00 in 0% 0 mhos 29 None None - -
Change End Date:
Copyright © 1998-2005 Surface Systems, Inc.
All Rights Reserved
Send comments about the data to:
SCAN Web ® is a registered trademark of Surface Systems, Inc.
SCAN Web Version 5.6